Weather Roundup
Issued by NWS Springfield, MO

Home | Current Version | Previous Version | Text Only | Print | Product List | Glossary On
Versions: 1 2 3 4 5 6 7 8 9 10 11 12 13 14 15 16 17 18 19 20 21 22 23 24 25 26 27 28 29 30 31 32 33 34 35 36 37 38 39 40 41 42 43 44 45 46 47 48 49 50
000
NZUS99 KSGF 040059
HRRSGF

HOURLY WEATHER
NATIONAL WEATHER SERVICE SPRINGFIELD MO
700 PM CST TUE MAR 03 2015

......SGF CWA......

CITY           SKY/WX    TMP DP  RH WIND       PRES   REMARKS
SPRINGFIELD    CLOUDY    42  40  92 NW7       29.86R
JOPLIN         CLOUDY    45  43  93 CALM      29.88R
WEST PLAINS    LGT RAIN  47  45  93 N5        29.85F FOG
ROLLA          LGT RAIN  42  38  85 NW6       29.85S
OSAGE BEACH    CLOUDY    45  39  81 NW3       29.89R
BRANSON        CLOUDY    48  46  93 NW7       29.86S

......SURROUNDING SGF CWA......

CITY           SKY/WX    TMP DP  RH WIND       PRES   REMARKS
CHANUTE        CLOUDY    43  36  76 N6        29.90R
PARSONS        LGT RAIN  44  39  82 NE6       29.87F
COFFEYVILLE    CLOUDY    47  40  76 CALM      29.87R
EMPORIA        CLOUDY    38  27  64 N15       29.88F WCI  29
SILOAM SPRINGS CLOUDY    48  43  81 NE3       29.87R
HARRISON AR    LGT RAIN  52  51  97 NW6       29.86R
NEAR YELLVILLE CLOUDY    52  48  87 CALM      29.85R

......KANSAS AND MISSOURI......

CITY           SKY/WX    TMP DP  RH WIND       PRES   REMARKS
KANSAS CTY INT CLOUDY    35  27  72 N10       29.94R WCI  27
DOWNTOWN KC    CLOUDY    40  28  62 N10       29.94R WCI  33
COLUMBIA       CLOUDY    38  37  97 NW9       29.90R FOG     WCI  31
SEDALIA        CLOUDY    38  33  82 NW10      29.93R WCI  31
ST JOSEPH      CLOUDY    33  24  69 N12       29.98R WCI  24
ST LOUIS       CLOUDY    43  38  82 NW8       29.89R
SPIRIT OF STL  CLOUDY    40  37  89 CALM      29.89R
WICHITA        CLOUDY    42  28  57 NE12      29.87F
TOPEKA         CLOUDY    35  23  61 N15       29.95R WCI  25
OLATHE         CLOUDY    39  28  64 N9        29.90R WCI  33

......TENNESSEE......

CITY           SKY/WX    TMP DP  RH WIND       PRES   REMARKS
MEMPHIS        CLOUDY    60  58  92 SW8       29.91R
NASHVILLE      HVY RAIN  61  59  93 S13       29.93S FOG

......ARKANSAS.......

CITY           SKY/WX    TMP DP  RH WIND       PRES   REMARKS
FAYETTEVILLE   CLOUDY    47  47 100 CALM      29.87R
FT SMITH       LGT RAIN  43  42  97 NE5       29.87R VSB 1
LITTLE ROCK    DRZL/FOG  53  51  93 SW3       29.88S VSB 1/2

......OKLAHOMA.......

CITY           SKY/WX    TMP DP  RH WIND       PRES   REMARKS
TULSA          CLOUDY    51  41  68 N7        29.85R
PONCA CITY     CLOUDY    45  42  89 N13       29.89R
MCALESTER      LGT RAIN  48  47  96 CALM      29.86R FOG
OKLAHOMA CITY  CLOUDY    53  42  66 CALM      29.83S

......IOWA............

CITY           SKY/WX    TMP DP  RH WIND       PRES   REMARKS
DES MOINES     CLOUDY    28  17  63 N17G25    29.95R WCI  16
QUAD CITIES    CLOUDY    33  26  75 NW8       29.84R WCI  26

......ILLINOIS........

CITY           SKY/WX    TMP DP  RH WIND       PRES   REMARKS
QUINCY         CLOUDY    36  30  79 NW12      29.89R WCI  28
CHICAGO        CLOUDY    33  28  81 W12       29.75R WCI  24




USA.gov is the U.S. government's official web portal to all federal, state and local government web resources and services.